Regional Weather Roundup
Issued by NWS Little Rock, AR

Home | Current Version | Previous Version | Graphics & Text | Print | Product List | Glossary On
Versions: 1 2 3 4 5 6 7 8 9 10 11 12 13 14 15 16 17 18 19 20 21 22 23 24 25 26 27 28 29 30 31 32 33 34 35 36 37 38 39 40 41 42 43 44 45 46 47 48 49 50
000
ASUS44 KLZK 291205
RWRLZK

WEATHER ROUNDUP FOR ARKANSAS
NATIONAL WEATHER SERVICE LITTLE ROCK AR
700 AM CDT SAT AUG 29 2015

NOTE: "FAIR" INDICATES FEW OR NO CLOUDS BELOW 12,000 FEET WITH NO
SIGNIFICANT WEATHER AND/OR OBSTRUCTIONS TO VISIBILITY.

ARZ001-003-010-029-291300-
NORTHWEST ARKANSAS

CITY           SKY/WX    TMP DP  RH WIND       PRES   REMARKS
FAYETTEVILLE   MOCLDY    70  61  73 CALM      30.02R
6HR MIN TEMP:  69; 6HR MAX TEMP:  74;

FORT SMITH     CLOUDY    71  63  75 SE6       30.02R THUNDER
6HR MIN TEMP:  71; 6HR MAX TEMP:  74;

BENTONVILLE    MOCLDY    68  59  73 S3        30.02R
6HR MIN TEMP:  66; 6HR MAX TEMP:  72;

ROGERS         CLOUDY    69  62  78 SE5       30.03R
6HR MIN TEMP:  67; 6HR MAX TEMP:  72; 6HR PCP: TRACE;

SILOAM SPGS    MOCLDY    68  57  68 W3        30.00R
6HR MIN TEMP:  66; 6HR MAX TEMP:  73;

HIGHFILL       MOCLDY    70  62  76 S7        30.01R
6HR MIN TEMP:  69; 6HR MAX TEMP:  73;

SPRINGDALE     MOCLDY    70  63  78 S5        30.03S
$$

ARZ004-005-016-291300-
NORTH CENTRAL ARKANSAS

CITY           SKY/WX    TMP DP  RH WIND       PRES   REMARKS
BATESVILLE     MOCLDY    66  63  88 CALM      30.04S
6HR MIN TEMP:  64; 6HR MAX TEMP:  70;

FLIPPIN        CLOUDY    66  61  82 CALM      30.02S
6HR MIN TEMP:  66; 6HR MAX TEMP:  72; 6HR PCP:  0.09;

MTN HOME       HVY RAIN  65  63  93 S7        30.04R FOG
6HR MIN TEMP:  65; 6HR MAX TEMP:  70; 6HR PCP:  0.10;

$$

ARZ040-041-291300-
WEST CENTRAL ARKANSAS

CITY           SKY/WX    TMP DP  RH WIND       PRES   REMARKS
MENA           CLOUDY    70  68  94 CALM      30.06R
MOUNT IDA      CLOUDY    66  65  96 CALM      30.02S FOG
6HR MIN TEMP:  65; 6HR MAX TEMP:  67; 6HR PCP:  0.08;

$$

ARZ009-017-025-026-028-291300-
NORTHEAST ARKANSAS

CITY           SKY/WX    TMP DP  RH WIND       PRES   REMARKS
JONESBORO      MOCLDY    67  66  97 CALM      30.04R
6HR MIN TEMP:  66; 6HR MAX TEMP:  72;

NEWPORT        MOCLDY    67  67 100 CALM      30.05R FOG
6HR MIN TEMP:  67; 6HR MAX TEMP:  73;

WALNUT RIDGE   MOCLDY    68  64  88 SE3       30.04R
6HR MIN TEMP:  68; 6HR MAX TEMP:  73;

BLYTHEVILLE    CLOUDY    71  69  93 S8        30.05R
6HR MIN TEMP:  71; 6HR MAX TEMP:  74;

$$

ARZ022-023-033-042-044-291300-
CENTRAL ARKANSAS

CITY           SKY/WX    TMP DP  RH WIND       PRES   REMARKS
LITTLE ROCK    MOCLDY    70  63  78 CALM      30.04R
6HR MIN TEMP:  68; 6HR MAX TEMP:  74;

N LITTLE ROCK    N/A     69  64  82 CALM      30.04R
6HR MIN TEMP:  69; 6HR MAX TEMP:  74;

JACKSONVILLE   CLOUDY    66  63  90 CALM      30.03R
6HR MIN TEMP:  65; 6HR MAX TEMP:  69;

SEARCY         MOCLDY    66  64  93 CALM      30.06R
6HR MIN TEMP:  65; 6HR MAX TEMP:  69;

HOT SPRINGS    CLOUDY    67  63  87 CALM      30.04R
6HR MIN TEMP:  66; 6HR MAX TEMP:  70;

RUSSELLVILLE   CLOUDY    68  66  93 CALM      30.02S
6HR MIN TEMP:  68; 6HR MAX TEMP:  71; 6HR PCP:  0.02;

$$

ARZ036-291300-
EAST ARKANSAS

CITY           SKY/WX    TMP DP  RH WIND       PRES   REMARKS
WEST MEMPHIS   MOCLDY    69  69 100 SW7       30.05R
6HR MIN TEMP:  66; 6HR MAX TEMP:  70;

$$

ARZ050-053-066-070-073-291300-
SOUTHWEST ARKANSAS

CITY           SKY/WX    TMP DP  RH WIND       PRES   REMARKS
ARKADELPHIA    FAIR      65  65 100 CALM      30.03R
6HR MIN TEMP:  64; 6HR MAX TEMP:  68;

CAMDEN         MOCLDY    64  61  88 CALM      30.03R
TEXARKANA      CLOUDY    71  63  75 S5        30.02S
6HR MIN TEMP:  67; 6HR MAX TEMP:  72;

EL DORADO      MOCLDY    63  61  93 CALM      30.04R
6HR MIN TEMP:  63; 6HR MAX TEMP:  69;

DE QUEEN       CLOUDY    68  67  96 CALM      30.01S FOG
6HR MIN TEMP:  66; 6HR MAX TEMP:  68; 6HR PCP:  0.01;

$$

ARZ056-057-069-291300-
SOUTHEAST ARKANSAS

CITY           SKY/WX    TMP DP  RH WIND       PRES   REMARKS
PINE BLUFF     MOCLDY    64  62  93 CALM      30.04R
6HR MIN TEMP:  64; 6HR MAX TEMP:  68;

STUTTGART      MOCLDY    66  61  82 NW3       30.05R
6HR MIN TEMP:  66; 6HR MAX TEMP:  73;

MONTICELLO     PTCLDY    64  63  96 CALM      30.04R
6HR MIN TEMP:  64; 6HR MAX TEMP:  68;


$$




USA.gov is the U.S. government's official web portal to all federal, state and local government web resources and services.